George, South Africa

2:05 PM SAST on September 22, 2017 (GMT +0200)
George

Weather History for FAGG - December, 2013

Change the Weather History Date:

Wednesday, December 25, 2013

  Actual Average Record
Temperature  
Mean Temperature 72 °F -  
Max Temperature 78 °F 74 °F 86 °F (2004)
Min Temperature 67 °F 58 °F 48 °F (2008)
Cooling Degree Days 8    
Growing Degree Days 22 (Base 50)    
Moisture  
Dew Point 66 °F    
Average Humidity 80    
Maximum Humidity 94    
Minimum Humidity 61    
Precipitation  
Precipitation 0.01 in - - ()
Sea Level Pressure  
Sea Level Pressure 29.89 in    
Wind  
Wind Speed 6 mph ()    
Max Wind Speed 13 mph    
Max Gust Speed -    
Visibility 6.7 miles    
Events Rain    
Averages and records for this station are not official NWS values.
T = Trace of Precipitation, MM = Missing Value Source: Averaged Metar Reports

Daily Weather History Graph

Daily Weather History Graph

Search for Another Location

Airport or City:

Trip Planner

Search our weather history database for the weather conditions in past years. The results will help you decide how hot, cold, wet, or windy it might be!

Date:

Astronomy

Dec. 25, 2013 Rise Set
Actual Time 5:18 AM SAST 7:43 PM SAST
Civil Twilight 4:48 AM SAST 8:12 PM SAST
Nautical Twilight 4:12 AM SAST 8:48 PM SAST
Astronomical Twilight 3:33 AM SAST 9:27 PM SAST
Moon No Moon Rise 12:26 PM SAST (12/25)
Length of Visible Light 15h 23m
Length of Day
14h 25m
Waning Gibbous, 52% of the Moon is Illuminated
Dec 25
Waning Gibbous
Dec 25
Last Quarter
Jan 1
New
Jan 8
First Quarter
Jan 16
Full

Hourly Weather History & Observations

Time (SAST) Temp. Dew Point Humidity Pressure Visibility Wind Dir Wind Speed Gust Speed Precip Events Conditions
12:00 AM 68.0 °F 64.4 °F 88% 29.98 in 6.2 mi ESE 3.5 mph - N/A   Overcast
1:00 AM 68.0 °F 64.4 °F 88% 29.95 in 6.2 mi ESE 4.6 mph - N/A   Mostly Cloudy
2:00 AM 68 °F 64 °F 84% 29.94 in 6 mi ESE 4.6 mph - -  
2:00 AM 68.0 °F 64.4 °F 88% 29.95 in 6.2 mi ESE 4.6 mph - N/A   Mostly Cloudy
3:00 AM 68.0 °F 64.4 °F 88% 29.95 in 5.0 mi SE 4.6 mph - N/A Rain Light Rain
4:00 AM 68.0 °F 64.4 °F 88% 29.95 in 4.3 mi ESE 8.1 mph - N/A Rain Light Rain
5:00 AM 68 °F 65 °F 87% 29.95 in 5 mi East 4.6 mph - - Rain Light Rain
5:00 AM 68.0 °F 64.4 °F 88% 29.92 in 5.0 mi ESE 5.8 mph - N/A Rain Light Rain
6:00 AM 68.0 °F 64.4 °F 88% 29.95 in 5.0 mi East 8.1 mph - N/A Rain Light Rain
7:00 AM 68.0 °F 64.4 °F 88% 29.95 in 5.6 mi ESE 10.4 mph - N/A   Mostly Cloudy
8:00 AM 68 °F 66 °F 90% 29.96 in 12 mi East 10.4 mph - -   Overcast
8:00 AM 68.0 °F 66.2 °F 94% 29.95 in 6.2 mi ESE 9.2 mph - N/A   Mostly Cloudy
9:00 AM 69.8 °F 66.2 °F 88% 29.92 in 6.2 mi East 10.4 mph - N/A   Mostly Cloudy
10:00 AM 75.2 °F 66.2 °F 73% 29.92 in 6.2 mi East 12.7 mph - N/A   Mostly Cloudy
11:00 AM 76 °F 68 °F 70% 29.90 in 12 mi East 8.1 mph - -   Mostly Cloudy
11:00 AM 75.2 °F 66.2 °F 73% 29.89 in 6.2 mi East 8.1 mph - N/A   Mostly Cloudy
12:00 PM 77.0 °F 68.0 °F 74% 29.89 in 6.2 mi ESE 6.9 mph - N/A   Mostly Cloudy
1:00 PM 77.0 °F 68.0 °F 74% 29.86 in 6.2 mi ESE 10.4 mph - N/A   Partly Cloudy
2:00 PM 77 °F 67 °F 63% 29.81 in 12 mi ESE 12.7 mph - -   Scattered Clouds
2:00 PM 78.8 °F 68.0 °F 69% 29.83 in 6.2 mi ESE 11.5 mph - N/A   Partly Cloudy
3:00 PM 77.0 °F 68.0 °F 74% 29.80 in 6.2 mi ESE 11.5 mph - N/A   Partly Cloudy
4:00 PM 77.0 °F 68.0 °F 74% 29.80 in 6.2 mi East 10.4 mph - N/A   Partly Cloudy
5:00 PM 78 °F 67 °F 61% 29.77 in 12 mi East 10.4 mph - -   Scattered Clouds
5:00 PM 77.0 °F 66.2 °F 69% 29.77 in 6.2 mi East 8.1 mph - N/A   Partly Cloudy
6:00 PM 77.0 °F 66.2 °F 69% 29.80 in 6.2 mi ESE 5.8 mph - N/A   Partly Cloudy
7:00 PM 77.0 °F 68.0 °F 74% 29.83 in 6.2 mi Variable 2.3 mph - N/A   Partly Cloudy
8:00 PM 71 °F 66 °F 81% 29.85 in 12 mi WSW 6.9 mph - -   Partly Cloudy
8:00 PM 71.6 °F 66.2 °F 83% 29.86 in - SW 9.2 mph - N/A   Clear
9:00 PM 69.8 °F 66.2 °F 88% 29.89 in 5.0 mi West 6.9 mph - N/A   Mostly Cloudy
10:00 PM 69.8 °F 66.2 °F 88% 29.92 in 3.7 mi WSW 9.2 mph - N/A   Mostly Cloudy
11:00 PM 69.8 °F 66.2 °F 88% 29.95 in 4.3 mi WSW 5.8 mph - N/A   Overcast